Tracking 28052 objects as of 23-Sep-2023
HD Live streaming from Space Station
objects crossing your sky now

STARLINK-3085

Track STARLINK-3085 now!
10-day predictions
STARLINK-3085 is classified as:


NORAD ID: 49156
Int'l Code: 2021-082AC
Perigee: 577.0 km
Apogee: 581.4 km
Inclination: 70.0 °
Period: 96.1 minutes
Semi major axis: 6950 km
RCS: Unknown
Launch date: September 14, 2021
Source: United States (US)
Launch site: AIR FORCE WESTERN TEST RANGE (AFWTR)
Your satellite tracking list
Your tracking list is empty




NASA's NSSDC Master Catalog

Two Line Element Set (TLE):
1 49156U 21082AC  23265.55266754  .00006209  00000-0  52753-3 0  9998
2 49156  70.0029   1.4954 0003154 265.7892  94.2906 14.98339320113366
Source of the keplerian elements: AFSPC